M I D A S
Marine Information and Data Acquisition System
Tripno 1326 of the Zeeleeuw from 2007-08-29 06:33:39 to 2007-08-29 13:56:30
Back to CruiseResearch ActivitiesStationsMapUnderway DataData graphs

EquipmentUnitsComment
TimeDGPSUTC
LatitudeDGPSDM.mWGS84
LongitudeDGPSDM.mWGS84
TemperatureSBE03/SBE38deg celciusITS90
ConductivitySBE21S/mITS90
SalinitySBE21 Practical Salinity Units
ChlorophylAChelsea fluorimeterg/lCalibrated in Aceton
Missing or incorrect values are displayed as -999
Sea surface data collected by the RV Zeeleeuw from 2007-08-29 06:37:41 to 2007-08-29 14:07:31
Time Latitude Longitude Temperature Conductivity Salinity ChlorophylA
2007-08-29 06:38:47 51°13.619 2°56.03 -999 -999 -999 -999
2007-08-29 06:39:46 51°13.657 2°55.909 -999 -999 -999 -999
2007-08-29 06:40:46 51°13.677 2°55.814 -999 -999 -999 -999
2007-08-29 06:41:46 51°13.678 2°55.752 -999 -999 -999 -999
2007-08-29 06:42:46 51°13.679 2°55.725 -999 -999 -999 -999
2007-08-29 06:43:46 51°13.705 2°55.73 -999 -999 -999 -999
2007-08-29 06:44:46 51°13.793 2°55.662 -999 -999 -999 -999
2007-08-29 06:45:46 51°13.918 2°55.57 -999 -999 -999 -999
2007-08-29 06:46:46 51°14.05 2°55.479 -999 -999 -999 -999
2007-08-29 06:47:46 51°14.174 2°55.376 -999 -999 -999 -999
2007-08-29 06:48:46 51°14.284 2°55.219 -999 -999 -999 -999
2007-08-29 06:49:46 51°14.395 2°54.992 -999 -999 -999 -999
2007-08-29 06:50:46 51°14.55 2°54.777 -999 -999 -999 -999
2007-08-29 06:51:46 51°14.72 2°54.599 -999 -999 -999 -999
2007-08-29 06:52:46 51°14.891 2°54.423 -999 -999 -999 -999
2007-08-29 06:53:46 51°15.049 2°54.228 -999 -999 -999 -999
2007-08-29 06:54:46 51°15.221 2°54.067 -999 -999 -999 -999
2007-08-29 06:55:46 51°15.389 2°53.884 -999 -999 -999 -999
2007-08-29 06:56:46 51°15.567 2°53.729 -999 -999 -999 -999
2007-08-29 06:57:46 51°15.743 2°53.571 -999 -999 -999 -999
2007-08-29 06:58:46 51°15.92 2°53.415 -999 -999 -999 -999
2007-08-29 06:59:46 51°16.096 2°53.252 -999 -999 -999 -999
2007-08-29 07:00:46 51°16.273 2°53.096 -999 -999 -999 -999
2007-08-29 07:01:46 51°16.449 2°52.935 -999 -999 -999 -999
2007-08-29 07:02:46 51°16.626 2°52.791 -999 -999 -999 -999
2007-08-29 07:03:46 51°16.801 2°52.648 -999 -999 -999 -999
2007-08-29 07:04:46 51°16.974 2°52.505 -999 -999 -999 -999
2007-08-29 07:05:46 51°17.148 2°52.362 -999 -999 -999 -999
2007-08-29 07:06:46 51°17.319 2°52.204 -999 -999 -999 -999
2007-08-29 07:07:46 51°17.485 2°52.042 -999 -999 -999 -999
2007-08-29 07:08:47 51°17.582 2°51.749 -999 -999 -999 -999
2007-08-29 07:09:47 51°17.676 2°51.453 -999 -999 -999 -999
2007-08-29 07:10:47 51°17.762 2°51.147 -999 -999 -999 -999
2007-08-29 07:11:47 51°17.854 2°50.84 -999 -999 -999 -999
2007-08-29 07:12:47 51°17.941 2°50.528 -999 -999 -999 -999
2007-08-29 07:13:47 51°18.029 2°50.206 -999 -999 -999 -999
2007-08-29 07:14:47 51°18.118 2°49.879 -999 -999 -999 -999
2007-08-29 07:15:47 51°18.211 2°49.553 -999 -999 -999 -999
2007-08-29 07:16:47 51°18.302 2°49.228 -999 -999 -999 -999
2007-08-29 07:17:47 51°18.398 2°48.908 -999 -999 -999 -999
2007-08-29 07:18:46 51°18.495 2°48.594 -999 -999 -999 -999
2007-08-29 07:19:46 51°18.59 2°48.275 -999 -999 -999 -999
2007-08-29 07:20:46 51°18.684 2°47.954 -999 -999 -999 -999
2007-08-29 07:21:46 51°18.775 2°47.63 -999 -999 -999 -999
2007-08-29 07:22:46 51°18.862 2°47.303 -999 -999 -999 -999
2007-08-29 07:23:46 51°18.951 2°46.976 -999 -999 -999 -999
2007-08-29 07:24:47 51°19.04 2°46.636 -999 -999 -999 -999
2007-08-29 07:25:47 51°19.129 2°46.299 -999 -999 -999 -999
2007-08-29 07:26:47 51°19.217 2°45.96 -999 -999 -999 -999
2007-08-29 07:27:47 51°19.306 2°45.626 -999 -999 -999 -999
2007-08-29 07:28:46 51°19.395 2°45.3 -999 -999 -999 -999
2007-08-29 07:29:47 51°19.489 2°44.962 -999 -999 -999 -999
2007-08-29 07:30:46 51°19.579 2°44.637 -999 -999 -999 -999
2007-08-29 07:31:46 51°19.664 2°44.301 -999 -999 -999 -999
2007-08-29 07:32:46 51°19.75 2°43.963 -999 -999 -999 -999
2007-08-29 07:33:46 51°19.837 2°43.624 -999 -999 -999 -999
2007-08-29 07:34:47 51°19.925 2°43.279 -999 -999 -999 -999
2007-08-29 07:35:47 51°20.01 2°42.937 -999 -999 -999 -999
2007-08-29 07:36:47 51°20.094 2°42.591 -999 -999 -999 -999
2007-08-29 07:37:47 51°20.179 2°42.246 -999 -999 -999 -999
2007-08-29 07:38:47 51°20.263 2°41.901 -999 -999 -999 -999
2007-08-29 07:39:47 51°20.351 2°41.563 -999 -999 -999 -999
2007-08-29 07:40:47 51°20.44 2°41.229 -999 -999 -999 -999
2007-08-29 07:41:46 51°20.501 2°40.886 -999 -999 -999 -999
2007-08-29 07:42:46 51°20.55 2°40.526 -999 -999 -999 -999
2007-08-29 07:43:47 51°20.591 2°40.157 -999 -999 -999 -999
2007-08-29 07:44:47 51°20.63 2°39.794 -999 -999 -999 -999
2007-08-29 07:45:46 51°20.642 2°39.431 -999 -999 -999 -999
2007-08-29 07:46:46 51°20.662 2°39.062 -999 -999 -999 -999
2007-08-29 07:47:46 51°20.68 2°38.691 -999 -999 -999 -999
2007-08-29 07:48:46 51°20.703 2°38.322 -999 -999 -999 -999
2007-08-29 07:49:46 51°20.725 2°37.953 -999 -999 -999 -999
2007-08-29 07:50:46 51°20.748 2°37.584 -999 -999 -999 -999
2007-08-29 07:51:46 51°20.769 2°37.214 -999 -999 -999 -999
2007-08-29 07:52:46 51°20.791 2°36.839 -999 -999 -999 -999
2007-08-29 07:53:46 51°20.814 2°36.461 -999 -999 -999 -999
2007-08-29 07:54:46 51°20.837 2°36.079 -999 -999 -999 -999
2007-08-29 07:55:46 51°20.859 2°35.695 -999 -999 -999 -999
2007-08-29 07:56:46 51°20.882 2°35.312 -999 -999 -999 -999
2007-08-29 07:57:46 51°20.905 2°34.925 -999 -999 -999 -999
2007-08-29 07:58:46 51°20.927 2°34.534 -999 -999 -999 -999
2007-08-29 07:59:46 51°20.949 2°34.143 -999 -999 -999 -999
2007-08-29 08:00:46 51°20.97 2°33.755 -999 -999 -999 -999
2007-08-29 08:01:46 51°21.045 2°33.408 -999 -999 -999 -999
2007-08-29 08:02:46 51°21.212 2°33.221 -999 -999 -999 -999
2007-08-29 08:03:46 51°21.397 2°33.115 -999 -999 -999 -999
2007-08-29 08:04:46 51°21.585 2°33.03 -999 -999 -999 -999
2007-08-29 08:05:46 51°21.774 2°32.958 -999 -999 -999 -999
2007-08-29 08:06:46 51°21.962 2°32.872 -999 -999 -999 -999
2007-08-29 08:07:46 51°22.147 2°32.778 -999 -999 -999 -999
2007-08-29 08:08:46 51°22.333 2°32.673 -999 -999 -999 -999
2007-08-29 08:09:46 51°22.473 2°32.42 -999 -999 -999 -999
2007-08-29 08:10:46 51°22.518 2°32.052 -999 -999 -999 -999
2007-08-29 08:11:46 51°22.51 2°31.652 -999 -999 -999 -999
2007-08-29 08:12:46 51°22.509 2°31.251 -999 -999 -999 -999
2007-08-29 08:13:46 51°22.501 2°30.849 -999 -999 -999 -999
2007-08-29 08:14:46 51°22.498 2°30.447 -999 -999 -999 -999
2007-08-29 08:15:46 51°22.493 2°30.051 -999 -999 -999 -999
2007-08-29 08:16:47 51°22.482 2°29.648 -999 -999 -999 -999
2007-08-29 08:17:47 51°22.468 2°29.253 -999 -999 -999 -999
2007-08-29 08:18:47 51°22.455 2°28.858 -999 -999 -999 -999
2007-08-29 08:19:47 51°22.442 2°28.462 -999 -999 -999 -999
2007-08-29 08:20:46 51°22.428 2°28.072 -999 -999 -999 -999
2007-08-29 08:21:47 51°22.414 2°27.667 -999 -999 -999 -999
2007-08-29 08:22:47 51°22.4 2°27.266 -999 -999 -999 -999
2007-08-29 08:23:47 51°22.39 2°26.876 -999 -999 -999 -999
2007-08-29 08:24:47 51°22.395 2°26.491 -999 -999 -999 -999
2007-08-29 08:25:47 51°22.404 2°26.108 -999 -999 -999 -999
2007-08-29 08:26:47 51°22.434 2°25.734 -999 -999 -999 -999
2007-08-29 08:27:47 51°22.553 2°25.442 -999 -999 -999 -999
2007-08-29 08:28:47 51°22.735 2°25.33 -999 -999 -999 -999
2007-08-29 08:29:47 51°22.918 2°25.378 -999 -999 -999 -999
2007-08-29 08:30:47 51°23.101 2°25.423 -999 -999 -999 -999
2007-08-29 08:31:47 51°23.285 2°25.458 -999 -999 -999 -999
2007-08-29 08:32:47 51°23.47 2°25.489 -999 -999 -999 -999
2007-08-29 08:33:47 51°23.655 2°25.515 -999 -999 -999 -999
2007-08-29 08:34:47 51°23.84 2°25.544 -999 -999 -999 -999
2007-08-29 08:35:47 51°24.024 2°25.577 -999 -999 -999 -999
2007-08-29 08:36:47 51°24.205 2°25.612 -999 -999 -999 -999
2007-08-29 08:37:47 51°24.384 2°25.655 -999 -999 -999 -999
2007-08-29 08:38:47 51°24.561 2°25.696 -999 -999 -999 -999
2007-08-29 08:39:47 51°24.736 2°25.736 -999 -999 -999 -999
2007-08-29 08:40:47 51°24.911 2°25.777 -999 -999 -999 -999
2007-08-29 08:41:47 51°25.086 2°25.818 -999 -999 -999 -999
2007-08-29 08:42:47 51°25.26 2°25.864 -999 -999 -999 -999
2007-08-29 08:43:47 51°25.433 2°25.908 -999 -999 -999 -999
2007-08-29 08:44:47 51°25.605 2°25.954 -999 -999 -999 -999
2007-08-29 08:45:47 51°25.779 2°26.002 -999 -999 -999 -999
2007-08-29 08:46:47 51°25.952 2°26.053 -999 -999 -999 -999
2007-08-29 08:47:47 51°26.129 2°26.104 -999 -999 -999 -999
2007-08-29 08:48:47 51°26.306 2°26.154 -999 -999 -999 -999
2007-08-29 08:49:45 51°26.479 2°26.204 -999 -999 -999 -999
2007-08-29 08:50:44 51°26.654 2°26.254 -999 -999 -999 -999
2007-08-29 08:51:44 51°26.832 2°26.305 -999 -999 -999 -999
2007-08-29 08:52:43 51°27.008 2°26.354 -999 -999 -999 -999
2007-08-29 08:53:43 51°27.187 2°26.411 -999 -999 -999 -999
2007-08-29 08:54:44 51°27.37 2°26.468 -999 -999 -999 -999
2007-08-29 08:55:44 51°27.549 2°26.526 -999 -999 -999 -999
2007-08-29 08:56:44 51°27.727 2°26.585 -999 -999 -999 -999
2007-08-29 08:57:44 51°27.906 2°26.648 -999 -999 -999 -999
2007-08-29 08:58:43 51°28.081 2°26.709 -999 -999 -999 -999
2007-08-29 08:59:44 51°28.266 2°26.775 -999 -999 -999 -999
2007-08-29 09:00:43 51°28.441 2°26.836 -999 -999 -999 -999
2007-08-29 09:01:43 51°28.619 2°26.745 -999 -999 -999 -999
2007-08-29 09:02:44 51°28.738 2°26.46 -999 -999 -999 -999
2007-08-29 09:03:43 51°28.849 2°26.177 -999 -999 -999 -999
2007-08-29 09:04:44 51°28.965 2°25.892 -999 -999 -999 -999
2007-08-29 09:05:44 51°29.084 2°25.612 -999 -999 -999 -999
2007-08-29 09:06:44 51°29.157 2°25.287 -999 -999 -999 -999
2007-08-29 09:07:44 51°29.229 2°24.96 -999 -999 -999 -999
2007-08-29 09:08:44 51°29.303 2°24.635 -999 -999 -999 -999
2007-08-29 09:09:43 51°29.375 2°24.31 -999 -999 -999 -999
2007-08-29 09:10:43 51°29.503 2°24.068 -999 -999 -999 -999
2007-08-29 09:11:44 51°29.683 2°24.089 -999 -999 -999 -999
2007-08-29 09:12:43 51°29.836 2°24.217 -999 -999 -999 -999
2007-08-29 09:13:44 51°30.001 2°24.33 -999 -999 -999 -999
2007-08-29 09:14:43 51°30.16 2°24.435 -999 -999 -999 -999
2007-08-29 09:15:44 51°30.316 2°24.574 -999 -999 -999 -999
2007-08-29 09:16:43 51°30.471 2°24.702 -999 -999 -999 -999
2007-08-29 09:17:43 51°30.627 2°24.835 -999 -999 -999 -999
2007-08-29 09:18:44 51°30.785 2°24.97 -999 -999 -999 -999
2007-08-29 09:19:44 51°30.939 2°25.108 -999 -999 -999 -999
2007-08-29 09:20:44 51°31.094 2°25.252 -999 -999 -999 -999
2007-08-29 09:21:44 51°31.253 2°25.391 -999 -999 -999 -999
2007-08-29 09:22:43 51°31.407 2°25.53 -999 -999 -999 -999
2007-08-29 09:23:44 51°31.567 2°25.673 -999 -999 -999 -999
2007-08-29 09:24:44 51°31.726 2°25.813 -999 -999 -999 -999
2007-08-29 09:25:44 51°31.885 2°25.957 -999 -999 -999 -999
2007-08-29 09:26:43 51°32.041 2°26.102 -999 -999 -999 -999
2007-08-29 09:27:44 51°32.202 2°26.253 -999 -999 -999 -999
2007-08-29 09:28:42 51°32.355 2°26.395 -999 -999 -999 -999
2007-08-29 09:29:44 51°32.518 2°26.541 -999 -999 -999 -999
2007-08-29 09:30:42 51°32.67 2°26.683 -999 -999 -999 -999
2007-08-29 09:31:43 51°32.832 2°26.832 -999 -999 -999 -999
2007-08-29 09:32:43 51°32.992 2°26.976 -999 -999 -999 -999
2007-08-29 09:33:44 51°33.154 2°27.123 -999 -999 -999 -999
2007-08-29 09:34:42 51°33.309 2°27.263 -999 -999 -999 -999
2007-08-29 09:35:43 51°33.471 2°27.408 -999 -999 -999 -999
2007-08-29 09:36:44 51°33.635 2°27.555 -999 -999 -999 -999
2007-08-29 09:37:43 51°33.79 2°27.696 -999 -999 -999 -999
2007-08-29 09:38:44 51°33.949 2°27.847 -999 -999 -999 -999
2007-08-29 09:39:42 51°34.098 2°27.999 -999 -999 -999 -999
2007-08-29 09:40:43 51°34.253 2°28.159 -999 -999 -999 -999
2007-08-29 09:41:43 51°34.404 2°28.315 -999 -999 -999 -999
2007-08-29 09:42:43 51°34.556 2°28.472 -999 -999 -999 -999
2007-08-29 09:43:43 51°34.708 2°28.63 -999 -999 -999 -999
2007-08-29 09:44:43 51°34.861 2°28.785 -999 -999 -999 -999
2007-08-29 09:45:43 51°35.012 2°28.943 -999 -999 -999 -999
2007-08-29 09:46:42 51°35.162 2°29.099 -999 -999 -999 -999
2007-08-29 09:47:43 51°35.316 2°29.257 -999 -999 -999 -999
2007-08-29 09:48:42 51°35.468 2°29.41 -999 -999 -999 -999
2007-08-29 09:49:44 51°35.628 2°29.566 -999 -999 -999 -999
2007-08-29 09:50:42 51°35.777 2°29.709 -999 -999 -999 -999
2007-08-29 09:51:43 51°35.931 2°29.861 -999 -999 -999 -999
2007-08-29 09:52:44 51°36.087 2°30.017 -999 -999 -999 -999
2007-08-29 09:53:42 51°36.236 2°30.16 -999 -999 -999 -999
2007-08-29 09:54:43 51°36.39 2°30.312 -999 -999 -999 -999
2007-08-29 09:55:44 51°36.545 2°30.463 -999 -999 -999 -999
2007-08-29 09:56:43 51°36.693 2°30.611 -999 -999 -999 -999
2007-08-29 09:57:44 51°36.846 2°30.768 -999 -999 -999 -999
2007-08-29 09:58:43 51°36.996 2°30.918 -999 -999 -999 -999
2007-08-29 09:59:43 51°37.148 2°31.073 -999 -999 -999 -999
2007-08-29 10:00:44 51°37.301 2°31.229 -999 -999 -999 -999
2007-08-29 10:01:43 51°37.45 2°31.381 -999 -999 -999 -999
2007-08-29 10:02:44 51°37.605 2°31.539 -999 -999 -999 -999
2007-08-29 10:03:44 51°37.758 2°31.695 -999 -999 -999 -999
2007-08-29 10:04:44 51°37.909 2°31.852 -999 -999 -999 -999
2007-08-29 10:05:44 51°38.062 2°32.011 -999 -999 -999 -999
2007-08-29 10:06:44 51°38.215 2°32.171 -999 -999 -999 -999
2007-08-29 10:07:44 51°38.368 2°32.332 -999 -999 -999 -999
2007-08-29 10:08:44 51°38.523 2°32.492 -999 -999 -999 -999
2007-08-29 10:09:44 51°38.677 2°32.653 -999 -999 -999 -999
2007-08-29 10:10:44 51°38.831 2°32.813 -999 -999 -999 -999
2007-08-29 10:11:44 51°38.986 2°32.968 -999 -999 -999 -999
2007-08-29 10:12:44 51°39.145 2°33.118 -999 -999 -999 -999
2007-08-29 10:13:44 51°39.304 2°33.269 -999 -999 -999 -999
2007-08-29 10:14:44 51°39.463 2°33.421 -999 -999 -999 -999
2007-08-29 10:15:44 51°39.621 2°33.573 -999 -999 -999 -999
2007-08-29 10:16:44 51°39.78 2°33.729 -999 -999 -999 -999
2007-08-29 10:17:44 51°39.939 2°33.883 -999 -999 -999 -999
2007-08-29 10:18:44 51°40.099 2°34.038 -999 -999 -999 -999
2007-08-29 10:19:44 51°40.26 2°34.194 -999 -999 -999 -999
2007-08-29 10:20:44 51°40.419 2°34.349 -999 -999 -999 -999
2007-08-29 10:21:44 51°40.58 2°34.504 -999 -999 -999 -999
2007-08-29 10:22:44 51°40.738 2°34.66 -999 -999 -999 -999
2007-08-29 10:23:44 51°40.901 2°34.805 -999 -999 -999 -999
2007-08-29 10:24:44 51°41.083 2°34.863 -999 -999 -999 -999
2007-08-29 10:25:44 51°41.247 2°34.995 -999 -999 -999 -999
2007-08-29 10:26:44 51°41.402 2°35.159 -999 -999 -999 -999
2007-08-29 10:27:44 51°41.517 2°35.397 -999 -999 -999 -999
2007-08-29 10:28:44 51°41.603 2°35.672 -999 -999 -999 -999
2007-08-29 10:29:44 51°41.688 2°35.947 -999 -999 -999 -999
2007-08-29 10:30:44 51°41.775 2°36.217 -999 -999 -999 -999
2007-08-29 10:31:44 51°41.829 2°36.514 -999 -999 -999 -999
2007-08-29 10:32:44 51°41.873 2°36.821 -999 -999 -999 -999
2007-08-29 10:33:44 51°41.893 2°37.138 -999 -999 -999 -999
2007-08-29 10:34:44 51°41.896 2°37.459 -999 -999 -999 -999
2007-08-29 10:35:44 51°41.717 2°37.602 -999 -999 -999 -999
2007-08-29 10:36:44 51°41.522 2°37.406 -999 -999 -999 -999
2007-08-29 10:37:44 51°41.332 2°37.185 -999 -999 -999 -999
2007-08-29 10:38:44 51°41.106 2°37.122 -999 -999 -999 -999
2007-08-29 10:39:44 51°40.908 2°37.275 -999 -999 -999 -999
2007-08-29 10:40:44 51°40.794 2°37.563 -999 -999 -999 -999
2007-08-29 10:41:44 51°40.695 2°37.864 -999 -999 -999 -999
2007-08-29 10:42:44 51°40.594 2°38.167 -999 -999 -999 -999
2007-08-29 10:43:44 51°40.496 2°38.47 -999 -999 -999 -999
2007-08-29 10:44:44 51°40.4 2°38.773 -999 -999 -999 -999
2007-08-29 10:45:44 51°40.303 2°39.076 -999 -999 -999 -999
2007-08-29 10:46:44 51°40.211 2°39.379 -999 -999 -999 -999
2007-08-29 10:47:44 51°40.118 2°39.684 -999 -999 -999 -999
2007-08-29 10:48:44 51°40.026 2°39.992 -999 -999 -999 -999
2007-08-29 10:49:44 51°39.927 2°40.294 -999 -999 -999 -999
2007-08-29 10:50:44 51°39.827 2°40.596 -999 -999 -999 -999
2007-08-29 10:51:44 51°39.726 2°40.897 -999 -999 -999 -999
2007-08-29 10:52:44 51°39.622 2°41.196 -999 -999 -999 -999
2007-08-29 10:53:44 51°39.521 2°41.496 -999 -999 -999 -999
2007-08-29 10:54:44 51°39.418 2°41.798 -999 -999 -999 -999
2007-08-29 10:55:44 51°39.264 2°42.046 -999 -999 -999 -999
2007-08-29 10:56:44 51°39.061 2°42.186 -999 -999 -999 -999
2007-08-29 10:57:44 51°38.833 2°42.174 -999 -999 -999 -999
2007-08-29 10:58:44 51°38.603 2°42.14 -999 -999 -999 -999
2007-08-29 10:59:44 51°38.373 2°42.124 -999 -999 -999 -999
2007-08-29 11:00:44 51°38.144 2°42.111 -999 -999 -999 -999
2007-08-29 11:01:44 51°37.914 2°42.1 -999 -999 -999 -999
2007-08-29 11:02:44 51°37.682 2°42.09 -999 -999 -999 -999
2007-08-29 11:03:44 51°37.473 2°41.972 -999 -999 -999 -999
2007-08-29 11:04:44 51°37.384 2°41.658 -999 -999 -999 -999
2007-08-29 11:05:44 51°37.383 2°41.314 -999 -999 -999 -999
2007-08-29 11:06:44 51°37.385 2°40.968 -999 -999 -999 -999
2007-08-29 11:07:44 51°37.39 2°40.625 -999 -999 -999 -999
2007-08-29 11:08:44 51°37.396 2°40.28 -999 -999 -999 -999
2007-08-29 11:09:44 51°37.405 2°39.936 -999 -999 -999 -999
2007-08-29 11:10:44 51°37.412 2°39.591 -999 -999 -999 -999
2007-08-29 11:11:44 51°37.42 2°39.245 -999 -999 -999 -999
2007-08-29 11:12:44 51°37.428 2°38.899 -999 -999 -999 -999
2007-08-29 11:13:44 51°37.436 2°38.555 -999 -999 -999 -999
2007-08-29 11:14:44 51°37.446 2°38.211 -999 -999 -999 -999
2007-08-29 11:15:44 51°37.457 2°37.87 -999 -999 -999 -999
2007-08-29 11:16:44 51°37.468 2°37.529 -999 -999 -999 -999
2007-08-29 11:17:44 51°37.48 2°37.187 -999 -999 -999 -999
2007-08-29 11:18:44 51°37.491 2°36.845 -999 -999 -999 -999
2007-08-29 11:19:44 51°37.501 2°36.503 -999 -999 -999 -999
2007-08-29 11:20:44 51°37.511 2°36.158 -999 -999 -999 -999
2007-08-29 11:21:44 51°37.521 2°35.812 -999 -999 -999 -999
2007-08-29 11:22:44 51°37.533 2°35.47 -999 -999 -999 -999
2007-08-29 11:23:44 51°37.548 2°35.13 -999 -999 -999 -999
2007-08-29 11:24:44 51°37.564 2°34.794 -999 -999 -999 -999
2007-08-29 11:25:44 51°37.536 2°34.475 -999 -999 -999 -999
2007-08-29 11:26:44 51°37.422 2°34.194 -999 -999 -999 -999
2007-08-29 11:27:44 51°37.284 2°33.95 -999 -999 -999 -999
2007-08-29 11:28:44 51°37.082 2°33.842 -999 -999 -999 -999
2007-08-29 11:29:44 51°36.88 2°33.727 -999 -999 -999 -999
2007-08-29 11:30:44 51°36.676 2°33.618 -999 -999 -999 -999
2007-08-29 11:31:44 51°36.473 2°33.505 -999 -999 -999 -999
2007-08-29 11:32:44 51°36.271 2°33.389 -999 -999 -999 -999
2007-08-29 11:33:44 51°36.071 2°33.267 -999 -999 -999 -999
2007-08-29 11:34:44 51°35.87 2°33.148 -999 -999 -999 -999
2007-08-29 11:35:44 51°35.67 2°33.029 -999 -999 -999 -999
2007-08-29 11:36:44 51°35.471 2°32.91 -999 -999 -999 -999
2007-08-29 11:37:44 51°35.271 2°32.791 -999 -999 -999 -999
2007-08-29 11:38:44 51°35.071 2°32.672 -999 -999 -999 -999
2007-08-29 11:39:44 51°34.87 2°32.559 -999 -999 -999 -999
2007-08-29 11:40:44 51°34.665 2°32.468 -999 -999 -999 -999
2007-08-29 11:41:44 51°34.46 2°32.378 -999 -999 -999 -999
2007-08-29 11:42:44 51°34.249 2°32.4 -999 -999 -999 -999
2007-08-29 11:43:44 51°34.034 2°32.389 -999 -999 -999 -999
2007-08-29 11:44:44 51°33.822 2°32.354 -999 -999 -999 -999
2007-08-29 11:45:44 51°33.611 2°32.321 -999 -999 -999 -999
2007-08-29 11:46:44 51°33.4 2°32.291 -999 -999 -999 -999
2007-08-29 11:47:43 51°33.192 2°32.265 -999 -999 -999 -999
2007-08-29 11:48:44 51°32.98 2°32.234 -999 -999 -999 -999
2007-08-29 11:49:44 51°32.772 2°32.201 -999 -999 -999 -999
2007-08-29 11:50:44 51°32.564 2°32.175 -999 -999 -999 -999
2007-08-29 11:51:44 51°32.357 2°32.148 -999 -999 -999 -999
2007-08-29 11:52:44 51°32.148 2°32.127 -999 -999 -999 -999
2007-08-29 11:53:44 51°31.951 2°32.159 -999 -999 -999 -999
2007-08-29 11:54:44 51°31.826 2°32.248 -999 -999 -999 -999
2007-08-29 11:55:44 51°31.734 2°32.326 -999 -999 -999 -999
2007-08-29 11:56:43 51°31.637 2°32.403 -999 -999 -999 -999
2007-08-29 11:57:44 51°31.46 2°32.478 -999 -999 -999 -999
2007-08-29 11:58:44 51°31.261 2°32.552 -999 -999 -999 -999
2007-08-29 11:59:44 51°31.06 2°32.63 -999 -999 -999 -999
2007-08-29 12:00:44 51°30.86 2°32.703 -999 -999 -999 -999
2007-08-29 12:01:44 51°30.66 2°32.78 -999 -999 -999 -999
2007-08-29 12:02:43 51°30.463 2°32.857 -999 -999 -999 -999
2007-08-29 12:03:43 51°30.264 2°32.94 -999 -999 -999 -999
2007-08-29 12:04:43 51°30.064 2°33.024 -999 -999 -999 -999
2007-08-29 12:05:44 51°29.876 2°33.165 -999 -999 -999 -999
2007-08-29 12:06:44 51°29.784 2°33.483 -999 -999 -999 -999
2007-08-29 12:07:44 51°29.755 2°33.857 -999 -999 -999 -999
2007-08-29 12:08:43 51°29.732 2°34.222 -999 -999 -999 -999
2007-08-29 12:09:43 51°29.723 2°34.588 -999 -999 -999 -999
2007-08-29 12:10:43 51°29.709 2°34.947 -999 -999 -999 -999
2007-08-29 12:11:44 51°29.702 2°35.308 -999 -999 -999 -999
2007-08-29 12:12:44 51°29.695 2°35.66 -999 -999 -999 -999
2007-08-29 12:13:44 51°29.685 2°36.019 -999 -999 -999 -999
2007-08-29 12:14:43 51°29.671 2°36.373 -999 -999 -999 -999
2007-08-29 12:15:44 51°29.659 2°36.739 -999 -999 -999 -999
2007-08-29 12:16:43 51°29.646 2°37.098 -999 -999 -999 -999
2007-08-29 12:17:43 51°29.585 2°37.438 -999 -999 -999 -999
2007-08-29 12:18:43 51°29.435 2°37.682 -999 -999 -999 -999
2007-08-29 12:19:43 51°29.258 2°37.853 -999 -999 -999 -999
2007-08-29 12:20:44 51°29.066 2°37.978 -999 -999 -999 -999
2007-08-29 12:21:44 51°28.875 2°38.106 -999 -999 -999 -999
2007-08-29 12:22:43 51°28.688 2°38.229 -999 -999 -999 -999
2007-08-29 12:23:43 51°28.495 2°38.358 -999 -999 -999 -999
2007-08-29 12:24:43 51°28.304 2°38.485 -999 -999 -999 -999
2007-08-29 12:25:43 51°28.116 2°38.616 -999 -999 -999 -999
2007-08-29 12:26:43 51°27.928 2°38.746 -999 -999 -999 -999
2007-08-29 12:27:43 51°27.738 2°38.858 -999 -999 -999 -999
2007-08-29 12:28:43 51°27.546 2°38.963 -999 -999 -999 -999
2007-08-29 12:29:44 51°27.351 2°39.069 -999 -999 -999 -999
2007-08-29 12:30:43 51°27.161 2°39.158 -999 -999 -999 -999
2007-08-29 12:31:43 51°26.966 2°39.25 -999 -999 -999 -999
2007-08-29 12:32:43 51°26.772 2°39.339 -999 -999 -999 -999
2007-08-29 12:33:43 51°26.577 2°39.42 -999 -999 -999 -999
2007-08-29 12:34:43 51°26.384 2°39.507 -999 -999 -999 -999
2007-08-29 12:35:43 51°26.19 2°39.593 -999 -999 -999 -999
2007-08-29 12:36:43 51°25.997 2°39.68 -999 -999 -999 -999
2007-08-29 12:37:43 51°25.805 2°39.77 -999 -999 -999 -999
2007-08-29 12:38:43 51°25.614 2°39.845 -999 -999 -999 -999
2007-08-29 12:39:43 51°25.423 2°39.926 -999 -999 -999 -999
2007-08-29 12:40:43 51°25.231 2°40.001 -999 -999 -999 -999
2007-08-29 12:41:43 51°25.04 2°40.079 -999 -999 -999 -999
2007-08-29 12:42:43 51°24.849 2°40.16 -999 -999 -999 -999
2007-08-29 12:43:43 51°24.656 2°40.243 -999 -999 -999 -999
2007-08-29 12:44:43 51°24.465 2°40.329 -999 -999 -999 -999
2007-08-29 12:45:43 51°24.276 2°40.417 -999 -999 -999 -999
2007-08-29 12:46:43 51°24.09 2°40.509 -999 -999 -999 -999
2007-08-29 12:47:44 51°23.9 2°40.604 -999 -999 -999 -999
2007-08-29 12:48:43 51°23.715 2°40.681 -999 -999 -999 -999
2007-08-29 12:49:43 51°23.526 2°40.692 -999 -999 -999 -999
2007-08-29 12:50:43 51°23.335 2°40.694 -999 -999 -999 -999
2007-08-29 12:51:43 51°23.145 2°40.694 -999 -999 -999 -999
2007-08-29 12:52:43 51°22.954 2°40.693 -999 -999 -999 -999
2007-08-29 12:53:43 51°22.762 2°40.695 -999 -999 -999 -999
2007-08-29 12:54:43 51°22.569 2°40.695 -999 -999 -999 -999
2007-08-29 12:55:43 51°22.377 2°40.694 -999 -999 -999 -999
2007-08-29 12:56:44 51°22.182 2°40.695 -999 -999 -999 -999
2007-08-29 12:57:43 51°21.995 2°40.698 -999 -999 -999 -999
2007-08-29 12:58:43 51°21.805 2°40.695 -999 -999 -999 -999
2007-08-29 12:59:43 51°21.615 2°40.698 -999 -999 -999 -999
2007-08-29 13:00:44 51°21.422 2°40.698 -999 -999 -999 -999
2007-08-29 13:01:44 51°21.23 2°40.7 -999 -999 -999 -999
2007-08-29 13:02:43 51°21.044 2°40.733 -999 -999 -999 -999
2007-08-29 13:03:43 51°20.884 2°40.936 -999 -999 -999 -999
2007-08-29 13:04:43 51°20.742 2°41.188 -999 -999 -999 -999
2007-08-29 13:05:43 51°20.621 2°41.471 -999 -999 -999 -999
2007-08-29 13:06:43 51°20.513 2°41.778 -999 -999 -999 -999
2007-08-29 13:07:43 51°20.406 2°42.091 -999 -999 -999 -999
2007-08-29 13:08:43 51°20.302 2°42.41 -999 -999 -999 -999
2007-08-29 13:09:43 51°20.207 2°42.736 -999 -999 -999 -999
2007-08-29 13:10:43 51°20.112 2°43.06 -999 -999 -999 -999
2007-08-29 13:11:43 51°20.014 2°43.381 -999 -999 -999 -999
2007-08-29 13:12:43 51°19.917 2°43.698 -999 -999 -999 -999
2007-08-29 13:13:43 51°19.821 2°44.013 -999 -999 -999 -999
2007-08-29 13:14:43 51°19.726 2°44.33 -999 -999 -999 -999
2007-08-29 13:15:43 51°19.634 2°44.651 -999 -999 -999 -999
2007-08-29 13:16:43 51°19.541 2°44.968 -999 -999 -999 -999
2007-08-29 13:17:43 51°19.448 2°45.289 -999 -999 -999 -999
2007-08-29 13:18:43 51°19.347 2°45.612 -999 -999 -999 -999
2007-08-29 13:19:44 51°19.246 2°45.936 -999 -999 -999 -999
2007-08-29 13:20:43 51°19.147 2°46.246 -999 -999 -999 -999
2007-08-29 13:21:44 51°19.047 2°46.567 -999 -999 -999 -999
2007-08-29 13:22:43 51°18.955 2°46.879 -999 -999 -999 -999
2007-08-29 13:23:44 51°18.862 2°47.203 -999 -999 -999 -999
2007-08-29 13:24:44 51°18.772 2°47.525 -999 -999 -999 -999
2007-08-29 13:25:43 51°18.685 2°47.842 -999 -999 -999 -999
2007-08-29 13:26:43 51°18.595 2°48.161 -999 -999 -999 -999
2007-08-29 13:27:43 51°18.503 2°48.479 -999 -999 -999 -999
2007-08-29 13:28:44 51°18.406 2°48.798 -999 -999 -999 -999
2007-08-29 13:29:43 51°18.312 2°49.108 -999 -999 -999 -999
2007-08-29 13:30:44 51°18.216 2°49.427 -999 -999 -999 -999
2007-08-29 13:31:44 51°18.121 2°49.74 -999 -999 -999 -999
2007-08-29 13:32:43 51°18.029 2°50.048 -999 -999 -999 -999
2007-08-29 13:33:44 51°17.934 2°50.368 -999 -999 -999 -999
2007-08-29 13:34:44 51°17.844 2°50.684 -999 -999 -999 -999
2007-08-29 13:35:44 51°17.745 2°50.989 -999 -999 -999 -999
2007-08-29 13:36:43 51°17.633 2°51.269 -999 -999 -999 -999
2007-08-29 13:37:43 51°17.504 2°51.535 -999 -999 -999 -999
2007-08-29 13:38:43 51°17.371 2°51.793 -999 -999 -999 -999
2007-08-29 13:39:43 51°17.202 2°51.974 -999 -999 -999 -999
2007-08-29 13:40:43 51°17.026 2°52.134 -999 -999 -999 -999
2007-08-29 13:41:43 51°16.852 2°52.298 -999 -999 -999 -999
2007-08-29 13:42:43 51°16.676 2°52.466 -999 -999 -999 -999
2007-08-29 13:43:43 51°16.495 2°52.582 -999 -999 -999 -999
2007-08-29 13:44:43 51°16.318 2°52.742 -999 -999 -999 -999
2007-08-29 13:45:43 51°16.145 2°52.917 -999 -999 -999 -999
2007-08-29 13:46:43 51°15.975 2°53.108 -999 -999 -999 -999
2007-08-29 13:47:43 51°15.805 2°53.296 -999 -999 -999 -999
2007-08-29 13:48:43 51°15.632 2°53.476 -999 -999 -999 -999
2007-08-29 13:49:43 51°15.447 2°53.611 -999 -999 -999 -999
2007-08-29 13:50:43 51°15.274 2°53.782 -999 -999 -999 -999
2007-08-29 13:51:43 51°15.106 2°53.969 -999 -999 -999 -999
2007-08-29 13:52:43 51°14.94 2°54.154 -999 -999 -999 -999
2007-08-29 13:53:43 51°14.775 2°54.352 -999 -999 -999 -999
2007-08-29 13:54:43 51°14.621 2°54.58 -999 -999 -999 -999
2007-08-29 13:55:43 51°14.471 2°54.811 -999 -999 -999 -999
2007-08-29 13:56:43 51°14.356 2°55.061 -999 -999 -999 -999
2007-08-29 13:57:43 51°14.256 2°55.266 -999 -999 -999 -999
2007-08-29 13:58:43 51°14.153 2°55.398 -999 -999 -999 -999
2007-08-29 13:59:43 51°14.058 2°55.467 -999 -999 -999 -999
2007-08-29 14:00:43 51°13.98 2°55.522 -999 -999 -999 -999
2007-08-29 14:01:44 51°13.859 2°55.609 -999 -999 -999 -999
2007-08-29 14:02:47 51°13.755 2°55.712 -999 -999 -999 -999
2007-08-29 14:03:47 51°13.698 2°55.821 -999 -999 -999 -999
2007-08-29 14:04:47 51°13.653 2°55.925 -999 -999 -999 -999
2007-08-29 14:05:48 51°13.62 2°56.027 -999 -999 -999 -999
2007-08-29 14:06:48 51°13.606 2°56.091 -999 -999 -999 -999